Weather in Dyabrino

Russia / Arkhangel'skaya Oblast'     61°34′54″N   45°57′44″E
В апреле 2022 года жителям России запретили посещать сайт meteo.paraplan.net по решению Генеральной прокуратуры. Аудитория сайта уменьшилась в 10 раз. Владельцы сайта не видят смысла в поддержке погодного сервера в таких условиях. Сайт будет закрыт в октябре.
temp.,
°C
wind,
m/s
gust,
m/s
humid.,
%
clouds,
%
prec.,
mm/h
press.,
hPa
HPBL,
m
29 september, thu
thu2900:000e5137294 0.0 1021608
03:00−1e51373100 0.0 1020617
06:00−1e51473100 0.0 1019638
09:00+1ese61460100 0.0 1019714
12:00+2ese51264100 0.2 1019811
15:000ese51495100 2.0 1019759
18:000ese51497100 1.2 1019751
21:00+1se41297100 2.2 1019781
30 september, fri
fri3000:00+1se41195100 1.2 1019644
03:00+2se41096100 1.4 1020541
06:00+2se3997100 0.0 1020453
09:00+3sse3997100 0.0 1020399
12:00+5sse41095100 0.0 1020478
15:00+6sse41096100 0.0 1020507
18:00+5sse41198100 1.1 1020485
21:00+5sse41398100 1.8 1019528
1 october, sat
sat100:00+6sse41397100 1.2 1017460
03:00+7sse51497100 1.9 1016505
06:00+7sse41198100 5.6 1015406
09:00+8s389899 5.9 1015366
12:00+9sw2695100 0.1 1015414
15:00+10w358435 0.3 1016776
18:00+7sw249399 0.1 101796
21:00+7ssw228799 0.1 101633
2 october, sun
sun200:00+5ssw118991 0.0 101610
03:00+6ene119895 0.0 101530
06:00+5ene119892 0.0 101414
09:00+7ne2491100 0.0 1013218
12:00+10nne3581100 0.0 1012649
15:00+9nne368298 0.0 1011554
18:00+7n278899 0.0 1011248
21:00+6nnw278693 0.1 1012208
3 october, mon
mon300:00+6nw268295 0.0 1013158
03:00+5wnw259099 0.0 1014187
06:00+5nnw2696100 0.0 1015292
09:00+5n2593100 0.0 1016277
12:00+7n2282100 0.0 1018434
15:00+8nne1276100 0.1 1019449
18:00+5ne2290100 0.0 102027
21:00+4e2391100 0.0 102171